Wind_Speed
16 16 14 13 12 11 11 10 10 9 7 6 4 5 7 8 9 10 12 14 13 13 13 13 12 11 10 8 8 6 4 4 4 5 5 6 8 7 7 9 7 6 5 4 4 3 1 1 1 1 2 2 2 1 2 2 2 4 3 3 1 3 3 4 6 6 4 5 6 5 5 8 4 1 0 2 5 3 3 4 3 4 6 3 1 9 25 30
17 15 13 13 12 11 11 11 11 10 7 6 5 5 6 8 9 9 11 13 13 12 12 12 12 11 10 8 7 5 3 4 3 5 8 8 7 8 8 9 7 6 4 3 3 2 3 1 3 3 4 2 2 2 2 1 2 3 3 3 3 5 3 4 6 5 3 5 8 5 4 6 6 5 2 2 1 2 4 2 4 4 5 6 7 18 27 28
16 15 13 13 13 12 11 10 11 10 8 7 7 6 6 9 9 9 10 11 12 12 12 12 11 10 10 9 6 4 3 2 1 5 10 10 8 9 9 9 8 6 4 4 3 2 2 2 2 2 4 2 1 2 2 1 1 2 4 3 5 6 3 3 4 3 4 5 9 5 4 3 3 5 2 4 4 2 4 4 1 1 2 3 7 16 23 25
16 15 13 13 14 12 11 10 10 10 9 8 7 6 7 8 9 8 9 10 11 11 11 11 10 10 10 9 6 5 3 2 1 5 9 11 10 10 10 10 8 5 5 4 3 2 2 2 0 3 4 1 3 2 1 1 1 2 4 4 6 3 2 3 2 2 3 4 9 6 5 2 3 4 2 6 6 3 6 7 7 9 9 9 7 12 19 21
18 16 13 13 14 13 11 10 10 10 9 8 7 7 7 7 8 8 8 8 10 10 10 10 10 10 9 8 6 5 4 3 3 4 7 11 11 11 11 10 8 6 6 5 4 3 2 1 4 4 4 1 1 3 1 2 2 3 1 4 5 3 2 3 3 3 1 5 6 7 6 4 2 2 4 9 7 5 7 8 11 10 12 15 13 14 16 17
18 16 12 12 15 13 12 11 10 10 9 8 7 7 6 6 7 8 7 7 9 9 10 10 9 9 9 7 7 5 4 2 2 3 6 9 10 12 12 10 8 7 6 5 4 1 1 3 4 3 2 2 2 2 3 2 2 3 2 2 2 3 3 1 2 3 3 8 6 6 4 3 4 1 4 8 8 7 7 8 10 9 13 18 17 16 14 14
18 16 13 13 15 13 12 11 10 9 10 9 8 8 6 6 7 7 7 7 9 9 9 9 9 9 8 7 6 3 2 3 2 4 6 9 10 12 12 9 8 7 7 5 2 2 3 5 3 3 4 2 3 3 2 1 5 5 2 2 1 1 3 1 1 2 4 8 4 4 3 4 6 3 2 4 9 8 7 4 4 8 14 17 14 14 15 16
18 16 14 12 12 13 12 11 9 9 10 10 9 9 7 6 6 7 7 7 8 9 9 8 9 9 9 8 5 2 1 4 4 7 7 10 11 11 11 9 8 7 7 5 3 4 4 4 3 4 3 1 4 3 2 4 5 4 3 3 0 1 1 1 1 3 4 4 1 4 4 3 6 3 1 6 10 9 6 3 3 9 13 13 13 13 14 14
18 16 14 12 11 11 12 11 9 9 9 10 10 10 8 6 6 7 7 7 7 8 7 8 8 9 10 7 5 3 3 4 8 9 9 10 10 11 11 9 9 8 6 4 3 5 4 3 4 4 4 3 4 4 2 4 1 2 5 4 2 1 2 1 2 2 2 1 2 4 2 3 4 2 2 9 10 6 3 2 3 8 10 10 11 13 14 12
18 16 14 13 11 11 12 11 9 9 9 9 10 10 9 7 7 7 7 7 7 7 6 8 8 9 11 5 5 3 4 7 11 10 10 10 10 11 10 10 10 8 6 4 5 6 4 5 4 4 5 2 3 3 1 4 3 3 6 4 4 1 3 2 1 2 1 1 1 4 2 3 3 2 3 9 5 4 6 4 3 7 9 11 10 11 14 14
18 16 15 14 12 11 10 10 9 8 9 9 10 10 10 8 8 8 7 7 7 6 6 8 8 9 9 5 5 4 4 8 11 10 10 10 10 10 10 11 9 6 7 6 5 6 5 6 6 5 2 2 3 2 1 3 4 5 8 5 6 5 4 3 1 2 2 1 2 4 1 3 3 1 7 7 2 5 8 7 6 7 8 9 10 9 11 14
18 17 16 14 12 11 10 10 9 8 9 11 11 11 10 9 8 8 7 7 6 6 7 8 9 10 6 3 3 5 5 10 11 10 10 9 10 9 9 10 7 5 7 6 5 6 5 4 6 5 1 3 4 2 1 2 5 5 7 5 5 8 4 3 1 2 1 1 1 3 2 4 2 6 10 5 2 4 7 8 7 8 7 7 9 7 8 13
19 16 15 14 12 10 10 10 9 8 10 12 12 11 10 9 9 8 7 7 6 7 7 7 10 10 5 1 3 4 7 10 10 10 9 9 9 9 9 9 7 4 5 6 6 7 5 2 6 6 3 5 3 1 3 3 5 4 4 5 2 6 4 6 2 1 1 0 2 3 1 6 6 11 10 5 2 4 6 8 7 7 7 6 7 6 7 11
19 16 15 13 12 11 10 10 10 9 10 12 12 10 10 10 9 8 7 6 7 7 7 8 10 8 3 1 3 4 8 10 10 10 10 10 10 10 9 8 6 5 5 7 8 6 4 3 7 6 3 4 3 2 4 5 4 3 2 3 3 2 3 7 2 3 4 1 4 6 2 6 8 11 9 7 4 7 6 8 7 7 7 6 6 7 7 10
19 17 15 13 12 12 11 10 10 9 9 12 11 9 9 9 7 6 7 7 7 9 8 7 9 6 1 2 2 5 10 10 10 10 10 11 10 8 7 8 7 7 7 8 8 6 5 6 6 5 1 2 4 5 4 4 3 3 2 2 3 2 4 8 2 6 6 1 4 6 2 6 8 10 8 6 1 7 7 7 7 7 7 7 7 7 7 9
19 17 15 14 13 12 12 10 10 9 9 10 10 8 8 7 6 7 8 8 8 9 8 6 8 6 2 1 1 5 7 8 10 11 10 10 8 8 9 9 8 8 8 6 7 6 6 6 4 2 3 3 5 6 4 4 3 3 3 2 2 2 2 4 2 3 4 1 2 2 2 4 5 7 8 5 4 3 5 7 7 7 8 8 7 7 8 8
20 17 15 14 14 13 12 11 10 9 8 9 8 7 7 6 6 8 8 9 9 8 6 3 6 4 1 1 2 3 5 7 11 11 9 8 8 11 10 7 5 5 6 5 5 4 5 5 2 0 3 4 3 5 5 1 3 3 2 1 3 3 2 2 3 3 2 2 2 1 3 6 7 7 9 7 3 1 5 8 8 8 8 8 7 7 7 8
20 17 15 14 14 13 11 11 10 9 9 9 8 9 10 9 8 8 8 10 9 7 3 0 3 3 2 3 3 3 5 9 12 11 9 8 9 10 7 4 5 6 5 5 3 3 3 4 2 1 3 3 2 5 4 4 5 5 3 2 2 2 3 3 3 3 2 2 3 2 3 10 13 11 11 10 3 3 8 9 8 9 9 9 8 8 8 9
19 16 15 14 13 12 11 10 10 10 10 10 11 13 13 10 8 6 6 7 6 4 1 3 4 3 4 5 3 3 7 11 11 9 8 7 8 7 6 5 5 6 4 2 2 1 2 3 4 3 2 2 4 6 6 7 8 8 6 5 4 3 3 5 4 4 3 4 3 6 6 9 11 11 11 12 5 5 9 9 8 9 9 9 8 8 9 9
18 16 15 13 12 11 10 10 10 11 11 12 14 14 10 6 5 2 0 1 3 2 2 4 5 3 1 1 4 8 10 8 5 6 7 6 8 7 5 5 6 6 3 4 2 0 4 4 3 5 7 7 7 7 6 5 6 7 6 5 4 4 2 5 3 4 1 3 5 7 7 9 10 12 12 11 7 5 9 10 10 11 10 10 9 10 10 11
18 16 15 13 12 11 10 11 12 13 12 13 14 8 4 5 4 3 2 3 6 4 1 3 4 2 1 4 9 10 7 4 1 2 6 5 7 8 1 3 5 3 0 3 3 2 5 5 6 8 9 8 7 7 7 6 5 5 6 5 2 3 2 3 2 4 2 2 5 3 4 11 10 11 12 10 9 10 11 11 13 14 12 9 9 11 11 10
19 17 15 13 12 12 10 12 13 13 13 12 10 3 3 6 5 8 8 1 6 4 1 1 2 3 1 5 9 6 5 4 1 2 4 4 4 5 1 4 6 3 0 3 3 4 4 3 9 8 7 5 5 6 8 6 5 5 4 5 2 3 2 3 3 4 3 1 4 5 6 11 10 10 13 11 12 12 10 10 13 13 11 9 10 11 10 9
18 17 15 13 13 12 11 13 13 13 14 12 9 4 2 5 8 12 8 3 3 2 1 2 2 2 2 3 7 3 5 5 4 4 5 5 3 3 4 5 5 4 2 4 5 5 2 5 8 5 6 6 6 4 7 6 4 4 4 4 2 3 1 2 4 4 3 1 2 4 6 10 8 7 11 11 10 10 8 9 12 10 10 12 10 8 9 10
18 17 15 13 15 14 12 14 13 13 15 13 12 8 3 5 12 12 4 3 2 2 1 3 2 4 4 3 6 5 3 3 5 6 7 7 4 3 5 5 5 5 3 6 8 7 5 6 3 6 6 6 6 4 7 6 1 0 3 5 3 3 3 3 3 3 3 4 3 4 5 8 5 5 8 7 5 7 6 6 10 10 10 11 8 7 9 10
18 18 15 15 16 15 14 14 12 13 13 11 13 11 5 5 10 10 3 3 2 2 2 3 1 4 6 5 6 6 3 1 2 5 8 9 6 4 3 3 4 5 5 6 8 5 6 5 3 7 4 5 7 4 6 8 3 3 3 6 7 6 6 2 2 4 4 5 3 4 3 6 5 5 8 7 6 8 6 6 10 9 7 7 7 9 10 10
17 17 16 16 17 18 15 9 11 13 10 9 11 9 7 6 8 8 4 4 2 2 1 3 1 6 9 5 5 4 3 2 2 2 7 8 4 3 3 1 2 4 6 6 4 3 3 1 4 7 5 6 6 3 4 6 6 1 4 5 7 7 7 5 3 3 1 3 3 4 3 5 7 6 9 8 8 11 11 11 13 12 7 6 7 8 8 8
18 18 17 17 20 22 13 5 12 15 6 7 11 10 7 7 8 6 5 5 3 2 4 2 0 6 9 5 6 6 3 4 2 3 3 4 2 3 4 4 2 3 4 5 2 2 2 3 5 6 6 6 5 3 5 7 7 3 4 6 8 8 7 6 5 3 1 3 4 4 4 3 7 7 7 5 6 10 12 14 15 14 10 5 6 8 8 8
18 19 19 19 23 22 9 5 17 15 4 6 12 11 7 8 8 4 5 2 3 2 5 2 1 5 5 3 6 5 2 3 5 1 1 3 1 3 3 6 6 5 2 5 4 4 2 4 4 6 6 4 4 4 6 8 6 4 4 7 7 7 7 5 6 3 2 3 5 4 2 2 6 8 6 3 3 8 11 13 14 13 9 6 7 9 8 8
19 20 21 20 22 19 6 5 17 13 5 10 14 12 9 8 6 4 4 3 1 1 2 2 3 3 2 3 3 2 1 2 2 3 1 3 1 3 3 6 6 7 3 4 6 3 0 4 6 7 6 5 4 3 4 6 4 3 5 7 6 6 6 5 5 3 3 2 5 5 5 3 5 7 5 2 2 7 10 10 10 9 8 7 8 8 8 7
21 22 21 20 21 20 9 5 14 12 6 11 14 13 11 6 4 4 3 4 2 1 0 2 4 3 6 7 1 1 2 2 0 1 2 1 2 5 2 3 6 7 4 6 4 1 2 1 2 3 4 6 4 2 1 3 5 6 6 7 7 6 5 4 3 4 2 3 7 7 7 4 4 6 5 4 4 6 6 7 8 7 7 7 6 7 7 5
20 21 22 21 20 19 9 4 13 14 7 11 15 12 7 4 3 5 5 4 2 2 1 2 2 5 12 13 5 1 3 2 0 5 3 1 2 3 2 2 4 5 3 4 2 4 5 3 1 1 1 4 6 5 4 3 4 6 5 5 4 4 4 4 4 4 1 6 6 5 2 3 4 6 5 6 8 7 5 7 8 7 7 6 6 6 5 3
20 19 21 22 19 18 10 2 11 14 8 12 14 7 4 3 2 4 4 2 2 3 5 4 4 6 11 10 6 4 4 2 1 5 6 4 3 3 4 5 4 4 2 3 1 2 2 0 2 2 1 4 6 5 4 6 5 5 5 6 4 2 3 2 3 0 3 6 4 3 1 2 6 7 7 9 10 8 7 8 7 7 6 5 5 5 4 3
21 20 20 22 20 18 10 3 9 13 10 12 9 4 5 4 6 7 5 2 2 3 4 4 3 6 10 8 5 5 4 2 4 3 3 4 5 5 3 3 5 5 3 5 4 2 1 5 3 1 2 2 6 6 3 0 1 4 5 6 5 3 1 3 3 1 4 5 3 2 1 3 5 4 9 11 8 6 6 7 8 7 6 4 4 4 4 4
17 21 21 21 21 19 11 3 8 12 10 10 5 4 5 5 7 9 7 4 1 2 2 4 7 8 8 6 5 6 3 1 5 5 3 4 5 6 5 5 4 5 4 4 4 5 4 4 4 5 2 3 6 5 7 6 4 4 4 6 6 5 5 4 4 3 4 3 3 3 1 4 3 2 7 9 7 6 6 6 6 6 6 5 6 5 4 5
11 19 22 21 21 21 13 5 7 11 9 6 4 4 8 8 6 6 7 4 1 2 3 3 9 9 6 1 2 6 4 2 4 5 4 6 6 7 6 6 6 4 5 5 2 3 4 5 6 2 1 7 8 4 5 7 2 2 2 4 4 6 5 2 3 6 3 2 3 2 3 5 4 5 8 6 8 8 6 7 6 6 6 4 6 6 5 5
8 13 17 17 20 23 18 9 7 9 7 5 5 7 8 7 4 4 5 4 4 5 7 4 4 6 6 2 2 6 2 3 5 4 3 4 3 6 6 6 7 7 6 6 3 2 2 4 5 2 2 3 6 4 4 4 3 2 2 3 5 4 7 4 2 0 3 2 4 2 5 6 3 7 9 5 8 8 7 8 7 7 7 5 7 7 5 5
7 7 7 8 14 21 22 15 8 7 5 4 7 8 5 3 2 2 3 3 5 8 9 5 2 4 6 3 4 7 2 2 4 4 3 3 2 5 7 4 6 10 9 5 2 4 5 2 5 1 2 3 1 4 2 2 4 5 4 6 2 2 3 4 2 2 3 3 5 1 6 6 2 5 6 2 6 9 8 8 8 9 8 7 9 7 4 6
6 3 0 4 10 15 19 18 12 6 4 3 8 7 2 2 1 2 0 2 6 7 6 5 3 4 6 5 4 7 5 3 5 4 4 4 4 6 9 4 4 11 10 4 2 3 5 3 5 1 3 4 3 3 0 4 3 5 4 4 4 2 1 2 2 2 1 3 5 3 5 5 5 6 3 1 6 8 9 10 8 10 9 8 10 7 4 5
6 3 2 5 9 11 15 18 13 6 3 5 10 7 1 1 1 2 2 0 3 5 5 5 3 3 5 7 6 6 6 6 7 6 4 4 5 5 10 8 5 9 10 7 5 3 4 4 4 2 1 2 3 2 6 2 2 3 1 2 3 3 4 3 3 3 4 4 3 3 3 4 6 7 6 8 9 8 9 9 9 11 11 9 7 6 4 5
5 2 1 5 9 11 15 16 9 4 5 7 7 4 1 1 1 3 3 1 1 1 3 4 3 4 5 5 4 6 6 5 8 7 4 6 5 5 8 9 5 7 9 7 5 3 3 4 4 2 2 1 2 4 7 8 5 3 3 4 3 1 2 2 1 2 4 4 3 3 5 6 5 4 9 11 10 10 11 11 10 11 11 9 7 6 6 5
3 2 2 6 11 14 15 10 3 2 4 2 1 1 0 1 0 3 4 3 2 0 1 3 4 4 5 5 3 4 5 4 7 6 4 6 7 5 7 9 7 7 7 5 5 4 3 4 4 2 1 4 5 5 5 10 9 8 7 8 8 5 4 3 4 2 2 3 5 4 6 9 5 4 7 8 9 10 10 10 10 9 9 8 7 6 6 6
2 2 2 8 18 19 11 3 1 3 2 2 1 1 1 1 1 2 3 4 3 1 2 2 2 2 4 5 5 5 6 4 5 6 4 7 10 7 6 8 10 11 9 7 8 6 3 4 4 3 4 6 7 5 3 6 5 3 4 6 7 7 6 6 6 4 1 2 3 3 4 8 4 5 7 6 7 8 8 8 8 8 8 7 6 5 4 4
2 1 1 12 25 21 8 2 1 2 1 2 1 0 1 1 1 0 1 2 2 2 2 2 1 1 1 2 4 6 8 5 7 8 6 7 9 7 5 8 10 12 9 6 6 4 3 4 4 1 3 4 5 5 3 1 1 3 4 3 4 4 4 5 5 4 3 4 3 2 5 8 4 2 4 4 5 6 4 6 7 5 5 3 2 3 3 3
2 1 2 9 23 18 6 3 3 3 3 3 2 1 1 0 1 2 1 1 1 2 2 0 1 1 1 2 3 6 7 5 7 9 6 5 6 4 4 9 10 9 7 6 6 6 4 3 4 3 1 3 4 3 3 2 2 3 3 3 4 4 5 4 1 2 2 6 7 5 8 9 4 3 2 3 4 3 2 4 4 1 3 3 4 5 4 4
1 0 2 3 11 9 4 3 4 4 5 5 5 5 4 1 1 2 2 1 1 2 2 1 0 1 2 2 4 1 3 2 3 7 5 4 4 3 1 4 9 9 7 5 7 7 6 5 5 6 7 7 6 6 5 4 3 1 3 7 8 8 9 5 3 3 5 8 8 7 9 9 3 4 4 3 4 3 2 3 1 4 4 3 3 3 3 4
1 1 1 1 1 2 2 0 4 4 5 5 4 5 8 5 1 1 3 2 1 2 1 1 1 2 2 2 3 1 2 1 1 3 4 4 3 2 3 2 4 6 2 3 8 6 3 4 7 10 12 11 11 9 6 9 7 7 10 12 12 11 12 10 5 6 10 9 7 9 12 12 8 4 5 5 3 2 4 5 2 1 0 3 3 3 4 5
1 1 3 2 0 2 2 1 2 4 5 6 4 4 8 7 2 1 4 4 3 3 1 1 1 1 1 2 2 1 2 1 2 2 2 3 3 3 3 2 1 2 4 2 6 5 4 4 9 12 14 14 12 9 9 13 13 15 16 14 13 13 13 12 11 13 13 8 9 14 12 13 16 10 7 8 7 4 6 7 5 3 2 4 5 4 5 6
0 0 2 1 0 3 3 3 4 4 6 8 5 4 7 8 5 4 4 2 1 4 3 1 3 7 6 4 3 1 1 0 1 2 2 1 1 1 2 2 1 2 3 1 3 3 4 5 7 10 13 15 11 6 10 13 13 14 17 16 16 15 15 16 18 20 16 10 12 17 13 13 19 13 10 12 9 7 8 7 4 3 3 4 5 6 8 9
0 1 2 1 1 2 1 3 6 6 7 8 5 4 8 10 10 6 4 3 1 4 7 4 6 10 9 6 4 3 3 2 3 3 2 1 1 2 1 1 1 2 3 3 1 1 4 5 6 8 10 14 13 8 10 12 10 10 14 15 15 17 19 21 22 23 20 15 15 19 16 16 17 11 10 12 10 9 8 2 1 4 5 5 6 7 8 9
1 0 1 2 2 1 1 3 6 6 6 7 5 5 7 11 12 7 4 6 5 4 8 9 8 8 9 8 6 6 8 6 5 4 4 3 1 1 1 2 1 3 4 2 1 1 2 4 3 5 5 12 13 8 8 10 10 10 11 12 13 15 18 20 19 18 16 15 17 19 17 17 12 6 9 9 5 5 5 3 4 7 5 5 7 8 9 8
2 1 1 2 1 1 1 2 4 4 4 6 6 6 7 9 10 8 4 6 8 7 9 13 10 6 6 7 8 11 12 9 8 8 5 4 3 2 1 1 2 3 4 1 1 1 1 2 1 3 5 11 10 7 8 6 6 7 10 13 15 14 14 14 14 14 14 15 17 16 15 15 7 6 8 6 6 7 8 7 7 6 5 7 9 10 9 7
4 3 2 3 1 1 2 2 3 4 4 6 6 5 5 5 7 8 5 4 8 10 10 12 10 5 4 9 13 15 13 10 9 6 4 5 4 3 3 2 2 3 2 1 1 1 1 3 2 3 7 10 6 7 8 6 4 7 13 17 18 14 11 10 12 15 16 14 13 12 14 14 5 6 7 6 7 8 9 7 7 7 7 8 10 10 9 9
Wind_Direction
193 194 183 183 187 182 175 168 165 164 173 184 183 185 194 197 196 191 187 187 187 188 192 196 197 199 203 207 211 216 232 243 235 212 204 209 210 204 195 195 201 210 215 214 201 182 159 7 301 19 86 73 22 348 357 357 65 56 82 109 168 190 198 183 185 200 175 168 191 211 170 136 155 226 193 51 52 68 68 37 4 11 22 20 357 146 154 161
197 202 193 185 187 183 176 171 168 171 176 180 181 186 203 202 196 195 190 189 190 192 193 197 200 198 203 209 212 219 242 240 236 240 225 205 199 199 191 190 199 208 208 202 194 136 98 13 342 53 72 57 336 9 24 341 78 89 108 105 208 208 202 196 197 206 187 166 171 188 172 150 171 173 125 134 178 85 102 9 0 28 20 38 104 137 149 158
196 205 201 186 184 184 180 174 170 174 179 182 185 188 208 206 197 197 194 191 192 194 195 199 202 200 204 209 212 222 224 196 233 252 226 205 195 193 189 193 200 207 207 191 182 145 122 301 316 88 72 58 310 33 75 9 69 153 113 99 233 216 205 222 199 212 243 184 156 172 172 160 195 170 143 160 165 158 177 202 138 204 224 139 137 144 150 159
199 207 206 189 182 186 185 177 172 174 179 183 187 195 209 206 199 201 198 195 194 195 197 199 202 201 206 209 211 210 168 83 254 229 210 205 201 195 195 197 198 208 214 201 190 218 279 325 35 120 86 52 324 26 122 288 174 136 104 165 223 185 154 253 232 280 281 162 153 153 134 164 224 182 169 143 138 255 240 215 194 201 190 167 174 164 160 165
203 208 209 194 182 186 187 179 174 171 176 181 188 202 206 204 204 204 203 201 198 198 200 201 203 203 206 206 202 195 135 82 236 202 196 204 199 197 198 196 199 212 217 211 208 226 275 28 75 74 71 116 351 39 221 246 119 76 19 204 205 144 147 271 289 316 45 104 119 128 139 180 171 175 169 147 156 227 232 217 208 198 174 170 175 174 171 172
201 204 204 190 180 185 187 181 175 169 173 179 188 198 200 205 206 206 207 203 202 203 202 201 201 202 204 200 194 186 143 148 228 172 191 195 192 196 192 194 200 213 214 205 210 198 88 63 66 80 69 93 145 143 203 263 76 100 278 265 239 185 163 237 319 331 104 112 122 145 170 151 115 226 182 160 195 224 227 214 212 200 170 168 166 168 175 180
196 201 200 188 182 185 187 184 180 171 172 180 187 187 190 204 204 205 206 202 206 206 204 201 198 199 195 181 177 156 138 237 232 169 187 179 181 186 181 189 196 206 204 183 175 129 103 75 87 143 95 80 167 174 170 37 46 96 175 283 310 172 137 173 144 39 95 121 159 153 125 135 148 192 151 193 231 240 256 260 205 175 157 157 159 173 185 186
198 201 200 193 190 191 190 188 185 176 174 182 188 181 182 199 202 201 204 206 208 206 207 199 193 192 181 169 151 84 323 239 187 161 170 165 170 172 174 186 187 195 193 185 185 150 128 106 157 162 103 196 178 157 130 70 37 83 166 225 11 358 312 309 82 63 70 103 123 112 116 191 193 181 151 235 244 244 254 346 65 138 143 157 169 183 189 191
201 201 199 200 202 200 197 192 186 181 176 184 189 181 179 194 201 199 205 209 208 206 205 192 192 184 177 168 117 113 234 194 158 155 157 159 164 166 174 181 179 190 186 199 205 160 153 153 193 182 156 212 152 134 135 101 275 177 152 172 133 302 293 6 71 49 38 56 76 122 125 278 247 259 266 242 238 227 191 67 79 133 146 175 181 186 189 194
201 200 201 207 209 208 206 199 196 189 178 184 187 181 181 193 198 196 201 208 209 205 195 189 188 176 179 166 105 163 226 164 156 158 156 160 163 166 174 173 173 189 184 176 175 154 155 175 181 151 142 157 114 110 121 129 186 158 121 117 92 25 315 24 91 309 353 8 70 153 207 297 306 330 266 260 247 153 146 161 180 155 167 188 189 194 194 197
202 203 205 210 213 216 214 211 216 204 186 188 184 181 185 193 197 192 194 203 206 194 184 187 180 175 180 150 128 197 210 164 164 158 157 161 164 172 175 171 169 183 177 153 164 159 142 169 153 121 133 135 109 49 357 136 121 126 116 82 16 356 327 355 88 285 336 65 115 128 182 307 356 309 233 260 271 153 166 183 195 190 192 195 195 200 198 205
203 206 207 210 214 219 222 224 230 216 200 196 187 185 188 194 196 189 190 197 196 182 179 181 175 174 165 112 165 204 178 167 167 159 163 164 164 174 172 171 171 173 174 154 164 159 135 165 132 113 184 138 119 76 156 130 98 122 107 88 348 0 341 284 242 281 336 116 227 101 350 295 231 231 237 268 340 157 173 192 205 211 211 204 204 204 203 215
204 207 208 210 214 219 225 228 236 226 209 204 192 186 191 197 196 190 188 187 180 173 175 174 173 174 150 122 215 194 172 170 167 162 165 161 158 166 164 169 167 149 168 164 159 147 130 156 123 123 136 111 130 182 127 75 88 126 87 95 28 14 339 280 300 2 141 66 2 90 282 275 245 245 254 298 325 146 172 209 216 222 226 220 214 211 217 222
204 207 207 209 211 216 224 229 238 232 216 210 197 187 196 200 195 189 179 172 167 165 169 168 171 173 156 219 225 192 183 174 168 162 155 153 149 152 152 154 154 136 144 149 142 134 120 117 106 104 103 100 137 124 60 25 55 113 97 71 63 90 278 294 309 129 149 309 43 94 206 268 272 271 275 294 250 176 193 224 220 227 234 233 228 220 226 226
203 206 207 209 209 214 222 230 237 230 215 207 196 192 199 196 191 178 164 163 160 160 162 165 170 161 109 281 253 183 182 176 172 166 156 156 148 143 146 141 138 130 131 131 125 117 113 120 94 82 90 38 76 85 45 10 20 54 108 316 350 153 259 305 284 156 155 280 50 94 223 270 278 278 281 304 213 175 208 233 232 234 234 235 238 228 232 239
202 204 207 209 210 215 220 231 237 219 204 199 194 192 185 175 170 159 160 157 150 155 152 162 179 158 117 235 162 158 176 179 175 168 161 163 158 145 141 134 123 122 126 116 114 107 89 89 70 87 123 68 79 93 61 33 352 1 104 203 261 157 255 305 289 209 166 171 21 105 223 273 283 280 290 326 58 137 225 248 251 243 239 236 234 231 230 244
200 204 209 209 211 217 220 232 234 212 197 193 181 165 153 146 145 147 151 146 138 140 131 161 186 164 91 115 122 172 187 181 176 170 162 163 160 148 138 123 102 108 107 89 99 93 55 53 49 175 73 70 102 97 81 54 268 294 51 168 227 175 187 270 284 285 116 139 248 160 210 255 269 283 292 306 24 56 253 254 256 248 247 245 238 240 234 237
198 203 208 209 214 216 222 233 227 208 191 177 153 133 125 117 117 124 133 134 121 103 74 51 156 164 249 195 178 193 175 172 173 169 162 157 155 147 128 107 98 86 68 52 57 53 31 28 56 87 40 49 104 101 127 207 197 189 185 155 224 209 192 238 253 243 119 125 228 187 227 255 266 277 282 283 274 230 251 252 254 252 248 251 249 246 242 241
197 202 205 209 215 214 224 229 214 197 178 158 138 123 110 95 90 102 124 130 119 108 176 206 154 164 217 207 190 136 140 157 163 165 161 154 154 140 98 92 87 78 82 68 35 35 70 54 66 113 165 184 173 154 168 197 174 168 178 147 158 183 223 243 252 254 158 130 237 226 230 250 261 272 276 278 261 211 252 263 260 258 251 249 249 246 246 245
194 197 197 204 211 213 225 218 197 186 173 158 145 126 109 101 80 73 133 235 199 171 206 201 166 151 184 176 140 121 123 134 148 167 164 161 154 131 82 56 47 51 98 143 155 102 85 107 166 183 195 194 189 178 155 156 141 133 127 112 154 171 234 258 269 305 120 140 250 239 245 259 259 267 268 273 283 253 253 259 256 254 248 244 243 244 245 243
189 189 190 198 207 212 218 204 187 182 176 167 159 140 141 157 125 163 204 292 246 224 292 200 148 117 82 129 145 137 119 96 45 170 167 174 150 138 93 34 72 65 144 157 141 23 69 130 210 215 204 190 180 169 128 109 90 95 125 119 151 185 220 251 237 306 4 139 267 311 294 268 258 265 267 268 275 262 244 243 250 249 245 244 244 246 246 250
184 184 186 192 202 205 201 190 181 180 180 180 182 195 210 179 146 155 150 160 242 219 85 207 85 48 55 134 160 146 83 89 88 239 190 168 140 156 155 69 119 158 212 113 95 37 54 198 232 226 197 145 117 141 122 108 93 82 116 127 172 229 260 294 296 312 8 123 272 351 330 277 263 257 262 258 252 254 243 233 245 251 250 245 238 241 247 257
181 182 181 189 198 194 184 179 176 181 186 189 203 218 208 182 159 153 139 107 212 202 85 198 125 103 81 145 187 151 87 137 168 226 208 153 146 171 135 107 135 141 119 135 133 123 122 246 239 201 158 117 88 129 123 100 87 91 114 132 208 259 244 269 292 312 358 40 275 355 322 283 284 275 267 261 253 264 261 243 246 245 244 245 243 242 240 247
180 179 178 187 191 186 179 172 173 189 196 204 219 213 165 156 164 163 140 75 175 217 254 224 165 157 159 160 181 155 119 158 164 194 191 156 147 148 145 145 131 127 162 159 141 152 203 252 208 122 132 127 106 129 141 136 138 18 138 143 185 223 171 200 274 313 355 0 15 30 332 290 311 326 288 285 294 285 278 274 265 246 237 250 263 258 243 242
178 177 177 184 183 177 170 168 182 196 197 214 226 211 171 151 167 168 127 61 199 302 310 239 213 188 179 140 164 168 133 156 198 194 182 166 151 132 163 155 122 163 185 140 130 165 237 257 138 113 111 114 117 145 171 163 166 301 231 177 174 169 156 163 357 31 28 345 334 38 356 290 313 319 281 293 320 299 304 315 284 266 244 241 254 254 248 252
176 178 176 181 178 166 161 174 199 190 184 218 220 194 173 156 160 166 106 52 270 280 169 186 159 183 180 148 162 147 106 231 275 153 161 169 165 115 144 153 90 178 175 135 133 178 242 315 92 121 130 115 119 159 199 153 124 253 241 179 148 126 122 126 86 61 68 262 292 52 103 267 303 290 261 276 296 289 291 294 284 277 258 217 234 250 247 255
174 177 172 175 173 164 160 181 181 169 173 223 201 176 172 154 151 158 82 43 279 209 149 189 346 169 174 169 159 132 157 214 95 82 141 162 205 61 125 181 130 159 166 124 136 225 178 75 65 94 101 107 127 180 206 141 118 229 232 138 128 120 127 133 111 104 228 255 317 16 123 231 291 270 258 274 281 280 281 279 275 273 271 239 239 251 247 249
169 175 174 177 174 167 159 144 160 167 199 193 173 169 165 150 151 133 87 95 256 152 143 207 168 150 153 146 137 121 201 189 122 192 298 105 184 45 104 193 168 153 143 122 174 255 171 149 162 132 101 128 178 218 204 132 108 239 201 128 130 129 130 120 101 98 6 2 313 309 134 201 269 272 296 338 287 277 268 262 262 271 287 280 257 259 260 256
166 170 175 177 174 174 180 150 165 181 206 167 163 169 156 145 146 99 93 174 208 86 137 148 142 144 119 113 109 77 39 61 125 219 343 87 157 44 127 194 153 129 63 100 169 237 128 183 191 140 129 189 203 251 206 134 111 192 138 97 77 78 84 78 94 109 43 1 255 227 175 209 267 280 300 345 293 264 260 263 264 272 285 271 260 267 270 272
168 166 171 174 177 188 210 218 186 183 178 167 165 164 150 134 126 119 171 215 161 112 133 148 176 161 135 139 129 356 108 51 37 106 43 67 14 27 119 155 100 105 37 39 111 240 322 255 202 117 152 189 156 89 112 137 135 131 95 65 48 33 41 47 59 87 68 285 255 222 188 198 276 277 253 229 224 228 255 288 285 285 292 276 266 265 267 293
175 169 173 176 182 191 198 219 195 185 177 172 162 155 139 86 85 147 192 215 127 113 107 153 199 149 152 161 165 151 100 45 151 137 128 150 46 41 122 115 71 86 43 32 41 321 352 33 297 291 160 134 100 67 29 19 84 99 80 78 68 352 10 19 0 48 140 253 265 267 215 165 240 256 252 251 251 238 238 265 276 292 301 287 278 270 270 316
185 177 178 182 184 190 190 172 187 188 181 165 156 137 102 92 179 201 208 191 157 189 174 177 205 173 164 159 146 153 129 87 176 154 147 150 156 174 173 173 152 118 188 193 152 326 353 7 284 315 225 138 106 75 29 5 28 74 93 99 96 336 5 342 301 201 227 246 264 297 286 211 236 242 252 262 262 252 227 223 246 264 264 256 257 263 273 291
191 184 184 190 189 190 195 156 172 184 175 160 148 73 80 132 204 216 215 202 197 192 156 148 149 150 153 147 154 167 130 140 187 159 147 144 162 206 234 211 164 131 183 183 134 134 282 307 308 69 285 198 136 130 137 230 93 125 137 133 137 138 136 248 264 267 260 264 282 302 244 252 275 260 241 244 249 249 235 228 234 240 239 243 260 272 274 268
185 188 191 196 196 195 197 161 162 175 167 156 134 81 128 177 215 208 204 215 209 68 86 126 115 125 152 156 183 177 120 188 183 137 134 137 152 205 233 239 191 106 112 150 151 167 185 278 228 175 214 194 171 174 157 148 158 178 156 136 154 162 163 205 214 212 249 281 298 299 235 205 227 271 246 245 266 276 258 255 258 257 255 267 290 292 258 250
169 188 196 200 206 208 204 186 168 171 163 139 120 150 178 199 216 204 195 195 184 57 49 103 116 134 171 150 215 193 150 179 181 132 154 168 174 196 196 206 197 135 127 161 196 167 163 253 247 217 152 164 175 201 138 117 118 232 123 107 186 191 148 137 192 180 183 313 297 255 234 215 209 272 271 261 282 290 282 293 311 292 274 294 299 273 233 233
147 182 196 199 210 215 210 199 170 165 158 119 141 191 202 206 207 195 186 162 152 132 108 92 95 138 176 154 198 213 166 118 160 151 184 195 203 198 192 205 194 174 164 160 174 162 144 271 276 5 16 170 167 171 141 134 169 174 147 182 216 179 122 110 249 138 81 266 270 208 248 282 327 287 281 273 279 294 305 307 310 296 300 323 292 259 224 225
131 160 190 197 210 214 211 206 175 150 139 127 181 205 206 208 190 164 182 136 135 138 127 137 156 148 168 164 190 206 183 106 157 171 190 200 239 200 195 231 197 185 189 159 168 195 155 245 290 128 186 269 166 131 56 21 132 134 187 208 179 86 91 109 211 341 41 248 271 244 242 274 312 271 302 332 264 277 289 286 285 288 292 284 268 254 208 219
114 108 241 244 222 213 211 207 187 146 91 142 206 221 195 192 197 78 76 115 129 137 138 162 165 143 169 179 188 191 176 162 178 185 180 192 243 201 176 203 207 193 200 172 176 217 151 185 300 28 178 285 8 112 274 343 90 135 189 185 112 126 208 105 162 204 164 232 272 285 260 255 215 225 285 271 224 240 263 270 273 274 265 249 258 264 219 224
105 64 339 256 230 217 205 196 182 146 119 183 208 222 182 143 349 357 294 288 113 130 158 183 169 138 177 176 165 175 183 179 174 181 182 184 236 215 175 186 207 195 195 174 176 205 141 177 264 321 226 304 34 144 200 210 54 63 101 110 97 148 174 167 166 169 172 200 248 299 301 260 227 205 191 210 218 214 233 252 255 254 251 245 258 271 247 229
112 88 285 234 217 205 188 178 163 140 176 196 203 207 127 80 344 307 303 351 72 128 171 191 171 147 170 171 157 171 183 175 168 182 200 186 214 244 195 188 187 181 181 172 176 177 130 186 226 304 336 177 175 210 191 170 158 146 157 175 190 123 110 168 194 130 144 170 195 264 278 262 251 193 178 199 216 214 219 231 236 242 250 252 250 255 257 249
108 124 237 212 191 178 168 162 131 130 178 209 203 163 106 104 87 304 325 29 69 23 138 158 163 154 155 160 172 175 161 159 172 184 209 199 204 237 213 188 163 143 140 153 196 199 169 182 171 146 213 203 224 248 191 179 184 174 180 193 191 172 136 169 237 221 128 167 179 199 266 266 245 192 187 196 212 223 223 224 236 250 256 254 247 241 242 246
118 156 213 192 178 166 156 155 52 97 152 223 189 143 140 115 83 304 320 30 54 8 37 88 132 143 151 163 173 164 152 160 182 185 207 214 208 219 220 185 156 147 145 169 203 195 127 115 134 169 215 216 242 266 216 204 212 188 203 200 186 186 166 170 215 220 152 214 177 136 266 270 237 190 205 213 223 240 237 218 230 256 252 242 256 265 247 247
158 201 223 185 177 165 152 199 147 115 192 227 205 43 79 116 96 288 291 25 47 35 30 32 63 85 141 166 154 160 167 173 186 194 210 221 219 225 203 167 152 152 156 172 193 181 105 109 141 215 311 313 306 320 358 73 187 230 241 186 158 195 174 156 189 180 167 210 190 146 249 264 272 216 222 245 253 262 260 217 215 253 268 247 308 343 6 345
168 230 340 187 179 170 164 188 167 164 182 160 158 174 79 97 182 174 190 183 123 96 84 37 5 57 136 129 123 174 190 186 194 204 204 205 232 256 168 165 163 160 172 186 178 179 190 174 144 132 326 323 325 320 309 263 200 218 239 193 174 161 111 89 123 131 201 223 191 184 239 254 288 317 283 302 319 326 298 210 193 318 351 24 41 26 17 355
125 153 336 211 183 178 194 186 149 156 165 155 164 173 169 219 230 161 145 129 144 151 144 169 5 74 110 76 51 141 196 155 188 209 206 202 246 321 33 180 183 184 201 194 164 164 182 185 162 166 198 216 216 220 217 195 180 213 221 206 196 169 152 169 197 168 225 230 191 193 239 248 301 336 298 315 10 14 306 270 349 40 17 6 23 359 323 308
110 151 267 284 185 192 268 193 134 151 167 161 163 175 179 192 257 137 154 164 184 162 122 152 164 83 65 75 51 20 241 25 81 187 206 215 235 302 347 336 203 212 237 151 155 146 141 196 194 193 206 211 213 217 177 143 155 206 217 206 199 193 186 190 195 199 219 229 219 224 239 246 253 255 259 279 316 304 274 284 311 70 199 272 258 247 261 265
128 159 177 171 125 198 241 281 165 160 162 165 166 174 179 183 186 160 185 201 191 165 152 339 171 174 196 163 140 219 244 346 54 139 195 221 247 289 327 34 92 314 2 132 176 141 111 213 212 207 218 223 220 210 168 158 176 202 212 207 201 201 193 192 209 219 218 221 239 237 227 239 249 235 221 251 260 256 259 260 257 235 220 245 251 267 292 301
187 147 181 163 128 198 209 209 187 159 149 164 172 160 173 184 183 176 188 202 162 165 178 280 231 216 208 168 146 187 179 81 245 206 173 184 244 324 352 38 45 349 32 150 212 132 144 217 215 205 225 237 232 197 170 182 192 200 208 207 201 198 193 198 215 224 218 208 237 242 218 221 245 238 215 231 233 230 243 237 230 260 277 283 298 317 319 317
220 306 287 356 82 186 207 155 162 164 161 170 182 169 174 190 196 187 152 132 154 189 181 203 230 220 215 195 177 191 183 177 225 212 163 149 164 127 131 207 301 6 78 129 211 151 169 220 215 195 220 242 237 203 180 193 199 205 214 211 203 199 198 204 215 223 223 218 233 246 238 234 244 234 214 228 226 227 247 250 190 253 275 298 309 310 301 299
141 221 278 18 60 164 357 116 154 178 177 177 198 196 186 193 194 187 146 153 174 184 187 207 218 209 212 204 187 213 220 205 220 220 169 153 197 165 164 200 201 24 44 109 156 278 204 220 212 170 204 245 240 207 182 193 199 210 223 223 215 209 208 213 218 222 226 228 235 245 252 253 249 203 210 231 210 205 237 242 234 245 258 280 288 282 278 283
205 3 84 101 65 209 203 117 143 173 186 192 202 196 194 201 189 173 175 190 182 167 186 207 208 192 203 200 196 221 227 216 227 230 180 152 199 199 159 172 135 64 22 49 68 1 205 204 78 120 202 242 236 185 170 179 187 216 233 228 218 213 212 216 218 219 217 220 230 238 248 254 237 168 209 220 148 180 220 223 235 246 232 237 254 258 256 256
207 349 53 108 57 227 193 134 143 174 200 202 198 181 181 193 173 164 186 221 199 188 192 199 193 169 178 202 211 220 218 213 228 231 164 163 212 202 164 179 144 105 78 104 63 22 147 156 145 158 209 242 232 152 148 137 146 232 237 224 214 212 211 211 220 227 220 213 219 223 233 245 219 159 217 219 168 197 228 223 233 253 244 234 242 246 240 234
Height
778 779 780 780 781 781 781 781 782 783 785 786 787 788 788 789 789 789 789 790 791 792 793 794 795 796 796 797 798 798 799 799 799 799 798 798 797 798 798 799 799 799 800 800 800 801 801 801 801 802 802 803 806 807 807 807 808 810 820 828 832 836 832 827 829 828 824 822 823 823 822 824 827 825 822 823 824 827 828 829 830 830 829 829 827 826 827 831
777 778 779 780 780 781 781 781 781 783 784 785 786 787 788 788 788 789 789 790 791 791 792 793 794 795 795 796 797 797 798 798 798 798 796 796 797 797 798 798 798 799 799 800 800 800 801 802 802 802 804 807 809 808 809 809 809 815 825 829 830 831 826 824 824 823 821 820 820 822 823 823 824 824 823 825 829 829 829 830 831 830 831 831 829 829 830 832
776 778 779 779 780 781 781 781 781 782 783 784 785 786 787 787 788 788 789 789 790 790 791 791 793 793 794 795 796 797 797 798 799 797 795 795 796 796 797 798 798 799 799 799 800 800 801 802 802 804 806 809 810 810 811 810 811 816 823 826 826 825 822 822 822 820 819 818 819 822 823 823 823 823 822 826 830 830 829 829 830 829 831 833 832 831 832 833
776 777 778 779 780 781 781 781 780 781 782 783 785 786 787 787 787 788 788 789 789 790 790 790 792 792 794 794 796 797 796 799 799 794 793 794 795 796 797 797 798 798 799 799 800 800 801 801 802 804 807 811 812 811 812 812 813 817 820 823 822 822 821 820 819 819 819 819 819 821 824 824 823 823 823 825 831 832 828 824 824 823 826 832 833 832 832 833
775 776 777 778 779 780 781 781 780 780 782 783 784 785 786 786 787 787 788 788 788 789 789 790 791 792 793 794 796 795 797 804 798 791 793 794 794 796 796 797 797 798 799 799 800 800 801 801 802 805 808 812 814 813 814 812 812 817 821 822 820 821 821 818 817 818 819 820 820 822 823 822 822 822 822 824 827 827 821 818 817 817 820 826 828 830 832 833
774 775 776 777 779 780 780 781 780 780 781 783 784 784 785 786 786 787 787 787 788 788 789 790 791 792 793 794 796 795 799 803 795 790 793 793 794 795 795 797 797 798 798 799 799 800 801 802 804 808 810 812 815 814 814 813 813 818 823 822 821 821 819 819 818 819 819 819 821 821 821 821 823 823 822 823 821 818 814 813 814 814 818 820 823 827 829 831
772 774 775 776 778 779 780 780 780 780 781 782 783 784 785 786 786 787 787 787 787 788 789 790 791 792 793 794 795 796 798 797 791 791 793 792 794 794 795 796 797 798 798 798 799 800 802 803 806 809 811 813 815 814 813 814 813 817 822 821 821 821 819 820 820 819 819 818 820 821 820 822 823 822 823 822 817 814 812 812 812 814 817 820 823 826 826 827
771 773 774 775 777 778 779 780 780 779 780 781 782 783 784 785 786 786 787 787 787 788 789 790 791 792 793 794 795 798 798 793 790 791 792 792 793 793 795 796 796 798 797 798 798 799 801 804 806 808 812 813 812 813 814 815 816 817 820 821 821 820 819 821 820 820 819 819 821 821 821 823 822 823 823 819 814 812 813 812 813 814 817 821 822 823 824 825
771 772 773 775 776 777 778 779 779 779 779 780 781 782 784 785 786 786 787 787 787 788 789 790 791 792 793 793 794 799 796 790 790 791 792 792 793 793 794 795 796 797 797 798 797 798 801 804 805 805 809 812 810 813 813 816 819 817 818 820 820 820 820 821 820 820 820 820 821 821 823 824 822 823 821 814 811 812 813 814 814 816 817 819 820 821 822 823
770 771 772 773 775 776 777 778 779 778 778 779 781 782 783 784 785 786 786 787 787 788 789 790 791 792 793 792 796 799 792 788 790 791 791 792 793 793 794 795 796 796 796 797 797 797 799 801 802 802 805 809 810 813 815 815 817 816 819 821 821 822 822 822 821 821 821 821 821 821 824 824 823 825 820 811 810 813 813 815 816 816 816 817 818 819 820 821
769 770 771 772 774 775 776 777 778 778 778 779 780 781 782 784 785 785 786 786 787 788 789 790 791 792 792 792 796 796 790 789 790 790 791 792 792 793 793 794 795 795 796 796 797 797 797 798 799 801 805 808 810 814 815 813 814 816 818 822 824 824 823 823 822 822 821 821 821 821 823 825 825 825 817 810 811 813 813 814 816 815 815 816 817 817 819 819
768 769 770 771 773 774 775 776 777 777 778 778 779 780 781 783 784 784 785 786 787 788 789 790 791 791 792 793 794 792 788 789 790 790 791 791 792 793 793 794 794 795 795 795 796 795 797 797 797 802 806 807 811 816 815 812 815 817 818 823 828 826 824 823 822 823 822 822 822 822 826 826 825 821 811 810 813 812 813 814 815 815 814 815 816 817 817 816
767 768 769 770 772 773 774 775 776 777 777 777 778 779 780 782 783 784 784 785 787 788 789 789 790 790 792 793 791 789 789 789 789 790 791 791 792 792 793 794 794 794 794 795 795 795 796 796 796 801 803 806 813 814 812 813 816 819 821 824 830 830 827 824 824 824 823 824 822 824 832 825 820 817 810 813 815 812 814 814 814 814 814 815 815 816 816 815
765 767 768 769 771 772 774 775 775 776 776 777 778 779 780 781 782 783 784 785 786 787 788 789 790 790 792 792 789 788 789 789 790 790 790 791 791 792 793 793 793 794 794 794 795 795 796 796 796 799 804 807 810 811 813 817 818 822 825 829 836 836 829 825 825 825 824 825 821 825 835 826 815 814 811 814 814 812 813 812 814 814 813 814 813 814 814 812
764 766 767 769 770 771 773 774 775 775 775 776 777 778 779 781 782 782 783 784 785 787 788 789 789 790 792 791 788 788 789 789 789 789 790 790 791 791 792 793 793 794 794 794 795 795 796 796 797 803 808 808 809 813 820 822 822 827 830 836 843 839 830 826 825 825 824 825 823 826 834 827 816 812 811 814 813 812 811 810 812 812 812 813 812 813 812 810
763 765 766 768 769 770 772 773 774 775 775 775 777 778 779 781 781 782 783 784 785 787 787 789 789 789 792 791 788 788 789 789 789 789 790 790 790 791 792 792 793 793 794 795 794 795 795 797 803 807 809 811 814 817 824 830 830 832 833 836 841 839 835 830 825 825 824 824 825 827 831 826 818 813 812 814 813 813 812 810 810 810 810 810 809 810 809 808
761 763 765 767 768 769 771 772 773 774 774 775 776 777 779 780 781 781 782 784 786 787 787 789 788 789 790 789 789 788 788 788 788 789 789 790 791 791 791 792 793 793 794 794 794 796 797 801 808 810 811 817 819 818 828 839 837 836 837 835 839 840 837 833 827 826 825 826 827 829 832 825 816 813 812 812 813 814 813 810 809 808 808 807 807 807 807 806
760 762 764 766 767 768 770 771 773 774 774 775 776 778 779 780 781 782 783 784 785 787 789 788 789 793 793 788 788 787 785 786 787 788 789 790 790 791 791 792 793 794 795 797 798 799 802 806 811 813 816 820 821 821 829 836 832 832 834 834 838 839 837 834 829 826 826 827 830 832 834 827 818 816 813 812 814 815 812 810 808 807 806 805 805 805 804 803
759 761 763 765 766 767 769 770 772 773 774 775 776 777 779 781 782 783 784 785 785 787 789 787 786 791 790 785 784 784 784 786 787 788 789 790 790 791 791 792 794 795 800 804 803 803 806 810 815 819 821 820 820 820 821 824 822 824 829 830 831 833 835 833 828 827 828 829 831 830 831 827 821 818 813 810 813 815 812 809 808 806 805 804 803 802 802 801
758 760 762 764 765 767 768 769 771 773 773 774 775 776 779 781 783 786 786 785 784 784 784 782 782 784 783 782 783 784 785 787 788 788 789 789 790 791 793 794 797 799 803 806 807 808 809 814 819 819 817 816 817 817 817 822 823 824 828 830 831 831 831 829 827 828 829 828 829 828 829 828 823 819 814 810 813 815 812 809 806 803 801 800 800 799 798 797
756 759 761 763 765 766 767 769 770 772 773 774 774 774 774 775 779 784 786 786 783 782 782 781 781 781 781 782 783 782 784 788 789 789 789 790 789 793 796 798 801 805 808 809 809 809 811 818 819 812 811 812 815 818 819 824 825 824 827 828 832 834 830 829 830 829 829 829 828 830 830 826 822 818 812 811 811 808 805 804 801 797 797 797 796 796 795 792
755 757 760 762 764 765 767 768 770 772 773 774 773 772 771 770 772 773 778 783 782 781 782 781 781 782 782 782 783 782 784 789 792 790 789 790 790 794 798 800 804 808 811 811 811 815 819 820 813 809 814 816 818 822 819 821 823 823 828 828 830 835 833 832 832 829 829 829 828 832 831 821 818 816 810 807 805 799 798 798 794 792 792 793 793 792 792 790
754 756 759 761 763 765 766 768 770 771 772 772 772 771 769 769 770 771 773 779 782 782 782 782 781 783 783 783 783 782 784 788 792 790 789 790 792 795 797 801 805 808 812 811 812 821 824 818 810 812 817 814 817 822 819 821 825 825 828 829 830 835 834 830 831 831 831 832 831 834 832 820 814 813 804 801 802 798 797 796 792 791 790 787 788 788 789 787
753 756 758 760 763 765 766 768 770 771 771 772 771 769 768 769 770 772 773 779 783 781 781 781 781 781 782 782 781 782 785 786 788 788 788 789 793 796 796 800 806 809 812 812 812 816 816 813 812 815 815 812 816 822 821 820 827 830 829 827 828 830 831 831 832 832 832 835 836 834 830 818 810 809 799 795 801 796 793 794 788 788 789 785 786 787 785 783
752 755 757 759 763 764 767 769 769 770 770 772 770 767 769 769 770 772 774 782 785 783 783 781 780 780 778 779 780 781 784 785 786 786 786 788 791 795 797 799 804 810 814 815 815 814 812 813 814 813 815 816 816 820 821 820 826 831 827 824 823 823 828 833 832 831 833 836 837 837 834 820 809 808 799 792 794 789 786 788 781 780 786 786 786 784 782 781
751 754 756 759 762 763 767 768 767 769 771 771 768 767 769 768 771 772 775 791 792 784 785 782 780 778 775 779 781 781 787 788 785 785 786 788 789 791 797 801 802 808 814 815 815 815 813 814 813 811 814 817 817 819 821 822 827 830 828 828 826 824 828 831 830 832 837 839 840 842 841 833 817 806 800 797 796 792 787 784 779 776 778 782 783 781 780 780
751 754 756 759 761 762 765 764 765 768 769 768 765 768 769 768 772 770 779 804 798 778 781 784 780 775 773 778 778 782 791 789 786 788 787 788 789 789 797 803 802 804 809 812 816 816 813 814 815 814 815 819 819 819 820 821 824 828 830 832 829 826 829 832 831 834 840 842 843 844 844 845 832 808 802 807 803 798 792 784 777 772 773 778 779 777 777 777
750 753 756 758 760 761 762 762 764 765 765 765 764 768 768 769 773 770 786 810 794 770 775 779 776 773 774 778 777 781 786 783 786 791 788 788 790 790 795 800 800 802 805 808 816 818 814 812 813 813 816 820 819 819 822 819 820 828 834 834 831 829 832 834 833 838 849 848 841 844 846 847 837 811 802 808 802 794 786 777 773 771 773 776 774 773 774 775
750 753 755 757 759 761 762 762 762 763 763 764 765 768 768 770 772 774 793 802 778 765 771 773 774 775 777 780 781 782 783 783 787 790 789 789 790 790 795 798 797 802 806 807 809 815 817 817 815 813 814 817 820 826 828 819 819 830 835 833 833 836 837 839 839 840 850 850 838 839 842 839 830 810 801 804 798 789 781 775 775 775 775 775 772 772 771 772
750 752 754 757 759 760 761 761 762 762 764 764 765 767 768 771 773 786 805 792 767 768 774 773 775 776 778 783 786 785 784 787 789 789 791 791 790 791 794 797 798 802 808 809 811 817 820 820 819 817 815 818 823 829 831 825 824 828 829 828 830 836 838 842 846 844 846 845 835 835 838 836 830 813 800 798 791 785 782 778 775 772 771 771 770 770 770 771
749 752 754 756 757 759 760 761 761 762 764 763 765 767 768 773 780 794 800 776 761 774 778 776 778 776 777 780 785 788 788 790 791 789 792 794 794 794 796 798 801 807 813 813 816 821 820 818 820 820 821 823 822 825 830 830 829 827 824 826 831 837 841 843 848 849 847 841 836 842 846 844 837 813 795 793 788 785 786 780 772 768 768 769 768 769 771 772
749 752 753 755 757 758 759 760 760 762 764 763 766 767 769 781 789 788 782 765 762 773 772 774 778 777 777 777 782 788 789 791 791 789 793 796 797 797 797 797 799 809 819 818 819 823 819 819 823 822 822 821 816 823 832 832 831 828 826 831 839 847 851 847 849 854 850 843 842 848 846 839 827 806 791 787 780 779 783 780 775 772 770 768 768 769 771 773
748 751 753 755 756 757 758 759 760 762 763 763 766 767 772 787 788 776 770 766 764 766 765 769 774 776 778 779 784 787 786 790 792 791 792 795 798 799 797 796 795 801 811 816 821 824 822 823 824 821 821 818 813 820 831 832 832 829 827 831 838 851 857 853 857 861 850 842 846 850 845 830 814 799 789 780 774 777 780 779 778 775 771 768 769 771 773 774
747 750 752 754 755 757 758 759 760 762 763 764 766 769 777 785 775 763 765 766 763 765 766 768 773 778 778 779 783 783 783 791 792 791 794 796 801 802 798 798 798 796 803 815 821 822 823 823 819 816 816 815 813 815 818 823 829 829 828 830 832 837 843 844 848 847 839 838 846 849 839 819 802 793 789 783 779 781 780 779 780 777 774 773 773 774 774 774
748 750 752 754 756 756 758 759 760 761 764 764 767 773 778 774 764 758 761 762 762 767 769 769 773 780 782 781 783 780 780 789 793 793 795 796 797 798 795 795 798 797 799 810 818 821 822 817 812 813 813 811 812 813 813 818 828 834 834 833 830 826 827 837 847 845 843 844 844 842 828 809 798 790 787 784 779 777 776 775 775 773 772 774 773 772 773 774
748 750 752 754 754 755 757 759 760 762 763 765 770 774 768 759 756 755 753 754 759 765 771 775 776 780 785 785 785 783 780 785 793 795 796 797 795 794 793 789 791 793 790 798 812 819 820 817 815 816 815 813 813 813 814 815 822 833 835 830 829 827 822 832 850 857 855 846 836 833 819 804 801 790 780 781 778 774 774 773 772 769 769 773 770 768 772 775
749 751 752 753 753 754 756 759 760 762 764 766 768 766 757 752 752 753 750 750 755 760 766 774 777 778 783 786 786 785 781 784 792 793 794 798 792 788 790 786 785 787 784 787 800 806 808 813 819 818 815 817 819 815 815 816 817 826 830 825 827 832 828 829 840 850 855 849 835 830 818 806 807 798 782 783 782 778 775 773 773 771 770 772 768 766 772 774
749 750 751 751 752 753 755 759 761 762 765 768 765 759 755 753 753 755 754 753 754 756 761 768 771 772 777 782 783 783 781 782 790 792 791 796 787 778 783 783 781 784 782 781 789 795 798 805 819 825 820 818 820 817 817 820 820 821 822 821 824 830 832 835 838 839 847 850 834 825 822 812 805 797 783 781 783 779 775 772 771 769 767 767 764 765 772 774
750 753 753 751 752 754 755 758 760 762 767 769 762 757 756 756 757 759 759 755 753 753 757 761 764 769 773 774 777 781 780 780 788 790 788 790 784 774 774 775 775 782 782 780 785 792 796 800 813 826 825 820 820 819 818 820 823 823 822 824 824 824 826 830 833 831 833 841 835 824 818 805 792 787 780 776 777 775 772 770 768 765 763 763 764 765 769 771
751 756 755 751 751 753 754 757 760 763 766 764 759 759 760 758 759 761 759 756 755 754 756 756 758 764 769 771 773 776 778 779 784 786 782 783 781 775 772 769 771 778 782 782 785 789 795 797 807 824 829 823 818 814 811 812 818 822 822 824 824 825 828 827 830 830 825 829 833 828 815 795 783 781 773 768 770 768 767 766 764 764 764 766 768 766 766 768
752 757 755 749 750 753 754 757 761 764 766 764 762 763 762 760 760 761 758 756 756 757 757 755 756 758 762 769 771 772 776 779 782 783 779 779 777 772 768 765 767 776 783 789 788 785 791 798 807 823 828 818 809 808 808 806 806 809 812 814 814 817 825 827 830 832 827 823 824 826 815 788 775 775 767 763 764 761 763 765 763 763 765 766 768 766 767 768
753 755 752 748 750 752 753 759 765 768 769 767 764 763 762 760 760 760 759 757 757 759 759 757 758 758 758 762 765 768 773 777 781 781 775 773 771 765 763 762 764 770 777 784 784 779 786 798 806 815 817 811 808 811 813 809 805 807 808 807 807 809 813 816 821 825 827 825 823 828 820 786 767 771 765 762 765 762 765 769 764 762 764 764 765 767 768 768
752 751 748 747 749 750 754 763 768 771 770 767 764 762 761 762 761 760 759 758 758 760 760 759 759 759 760 761 762 764 768 771 776 776 770 770 767 762 762 763 764 768 771 777 782 780 785 794 800 808 812 809 808 810 812 811 809 809 809 808 809 810 807 809 815 817 818 818 818 827 823 787 767 773 770 767 770 767 768 770 765 762 762 762 763 765 767 768
750 750 748 748 749 750 754 758 762 767 769 768 766 763 762 762 762 761 761 760 760 761 762 761 761 762 763 764 762 762 763 764 768 769 768 768 766 763 763 763 764 767 767 769 773 775 783 791 796 805 812 812 812 812 811 811 811 808 808 809 807 807 811 815 818 819 817 810 809 818 813 785 769 772 771 769 768 763 764 768 767 764 762 762 764 766 767 769
750 750 750 748 749 750 751 750 752 761 766 767 767 766 765 764 762 761 762 762 761 760 761 763 763 762 764 765 764 763 763 762 763 765 766 767 766 766 766 765 764 763 760 761 762 766 777 784 787 796 805 807 807 804 799 803 811 809 804 804 804 804 809 809 811 819 816 805 805 808 795 778 771 769 765 764 763 761 762 764 766 767 764 764 766 767 768 770
749 750 750 750 750 750 750 747 747 755 761 763 765 765 765 765 764 762 762 762 762 761 761 763 764 763 764 766 766 765 765 766 766 766 766 765 765 768 770 768 766 764 762 762 762 766 773 777 778 781 784 784 782 781 782 790 802 803 795 796 801 802 802 802 806 811 805 798 802 798 786 779 775 770 765 763 762 762 762 760 762 767 769 768 768 768 769 769
749 748 748 749 749 750 751 750 748 750 754 757 758 760 762 764 763 763 763 761 760 762 763 764 764 764 765 765 767 768 767 768 770 768 767 767 766 769 772 770 767 767 767 766 765 767 772 775 775 774 773 770 768 772 778 781 786 789 788 791 797 800 801 803 802 795 790 798 799 786 784 787 777 771 770 765 762 764 761 758 758 763 767 768 767 767 765 764
749 747 746 745 745 747 748 749 749 748 749 752 753 755 760 763 761 761 762 762 761 762 766 768 766 764 764 763 765 768 769 769 769 767 768 770 769 769 769 768 769 770 770 768 767 768 770 771 771 773 774 770 767 774 779 777 776 778 780 783 789 795 800 800 794 784 783 794 788 773 779 784 771 767 770 765 762 762 758 758 761 762 764 765 764 763 761 760
750 749 747 745 745 746 746 745 747 748 749 750 751 752 756 760 758 756 757 762 764 762 764 768 766 763 763 764 765 768 768 767 766 766 768 769 771 770 768 767 770 771 769 769 770 770 769 766 765 770 774 771 769 776 779 776 776 777 778 779 781 787 791 788 784 778 778 784 778 769 774 774 764 764 766 761 761 762 759 762 764 763 762 762 761 761 760 760
750 749 747 747 746 746 746 745 746 748 748 749 750 749 750 754 755 753 753 757 762 762 762 763 762 761 762 764 766 767 764 761 762 764 766 767 770 772 770 768 770 771 770 770 772 773 771 769 767 769 774 771 767 773 780 780 779 777 777 779 780 783 785 783 780 778 780 783 778 774 776 770 761 761 761 759 761 763 762 763 762 761 761 762 761 760 759 760
748 748 747 748 748 746 746 746 746 748 748 748 748 746 747 750 750 751 752 750 752 756 758 757 759 760 762 764 766 763 760 760 761 761 764 766 768 769 770 770 771 772 772 773 775 773 772 774 773 773 776 770 764 772 782 783 782 783 780 776 776 778 779 780 779 776 777 778 778 781 780 766 757 757 758 759 762 761 759 760 760 761 762 762 761 759 759 761
748 749 748 749 748 747 746 745 747 748 744 742 744 744 746 747 747 749 752 750 747 748 750 752 755 760 763 765 761 756 755 758 759 760 765 768 767 768 769 770 771 773 775 777 779 778 777 775 772 775 775 768 766 774 779 782 787 784 770 760 764 770 772 775 775 771 768 770 774 775 767 754 754 758 756 758 761 758 756 756 757 758 760 761 759 757 758 760